This is the latest recevied weather packets stored in our database for station/object VA3WWD-2. If no packets are shown the sender has not sent any weather packets the latest 10 day(s).
| Time | Temp. | Humidity | Pressure | Rain* | Wind** | Luminosity | Snow |
|---|---|---|---|---|---|---|---|
| 1778112316 | 4.44° C | 40% | - | 0 mm | 0 m/s | - | - |
| 1778112018 | 5° C | 39% | - | 0 mm | 0 m/s | - | - |
| 1778111720 | 5.56° C | 37% | - | 0 mm | 0 m/s | - | - |
| 1778111122 | 5° C | 35% | - | 0 mm | 0 m/s | - | - |
| 1778110823 | 5° C | 34% | - | 0 mm | 0 m/s | - | - |
| 1778110523 | 6.11° C | 33% | - | 0 mm | 0 m/s | - | - |
| 1778110225 | 6.67° C | 34% | - | 0 mm | 0 m/s | - | - |
| 1778109927 | 5.56° C | 31% | - | 0 mm | 0 m/s | - | - |
| 1778109328 | 6.67° C | 31% | - | 0 mm | 0 m/s | - | - |
| 1778109030 | 6.67° C | 31% | - | 0 mm | 0 m/s | - | - |
| 1778108431 | 6.67° C | 34% | - | 0 mm | 0 m/s | - | - |
| 1778108133 | 6.67° C | 30% | - | 0 mm | 0 m/s | - | - |
| 1778107832 | 7.22° C | 31% | - | 0 mm | 0 m/s | - | - |
| 1778107534 | 7.22° C | 30% | - | 0 mm | 0 m/s | - | - |
| 1778107236 | 7.22° C | 28% | - | 0 mm | 0 m/s | - | - |
| 1778106935 | 7.22° C | 30% | - | 0 mm | 0 m/s | - | - |
| 1778106637 | 7.22° C | 30% | - | 0 mm | 0 m/s | - | - |
| 1778106339 | 6.67° C | 31% | - | 0 mm | 0 m/s | - | - |
| 1778106038 | 6.67° C | 31% | - | 0 mm | 0 m/s | - | - |
| 1778105740 | 6.67° C | 29% | - | 0 mm | 0 m/s | - | - |
| 1778105442 | 6.67° C | 30% | - | 0 mm | 0 m/s | - | - |
| 1778104843 | 7.22° C | 30% | - | 0 mm | 0 m/s | - | - |
| 1778104545 | 6.11° C | 32% | - | 0 mm | 0 m/s | - | - |
| 1778103946 | 7.22° C | 32% | - | 0 mm | 0 m/s | - | - |
| 1778103648 | 7.22° C | 30% | - | 0 mm | 0 m/s | - | - |
* Rain latest hour (hover to see other rain measurements)
** Current wind speed in m/s (hover to see current wind gust speed)